When you browse on this site, cookies collect data to enhance your experience and personalize the content and advertising you see.
Visit our Privacy Policy to learn more. By continuing to use the site, you agree to this use of cookies and data.

Hourly Weather Seondha

Today, 8 August, Saturday

Time Temperature Precipitation Wind Pressure Humidity
00:00 +34°C° 0 mm 2 mps 737 mmHg 61%
01:00 +34°C° 0 mm 2 mps 736 mmHg 64%
02:00 +32°C° 0 mm 2 mps 736 mmHg 66%
03:00 +32°C° 0 mm 2 mps 736 mmHg 68%
04:00 +32°C° 0 mm 2 mps 736 mmHg 70%
05:00 +31°C° 0 mm 1 mps 735 mmHg 71%
06:00 +32°C° 0 mm 1 mps 736 mmHg 68%
07:00 +33°C° 0 mm 1 mps 736 mmHg 64%
08:00 +34°C° 0 mm 1 mps 736 mmHg 61%
09:00 +35°C° 0 mm 1 mps 736 mmHg 56%
10:00 +37°C° 0 mm 1 mps 736 mmHg 51%
11:00 +39°C° 0 mm 1 mps 736 mmHg 45%
12:00 +39°C° 0 mm 1 mps 735 mmHg 43%
13:00 +40°C° 0 mm 1 mps 735 mmHg 41%
14:00 +40°C° 0 mm 1 mps 734 mmHg 40%
15:00 +40°C° 0 mm 1 mps 733 mmHg 40%
16:00 +40°C° 0 mm 1 mps 733 mmHg 39%
17:00 +39°C° 0 mm 1 mps 733 mmHg 41%
18:00 +39°C° 0 mm 1 mps 733 mmHg 43%
19:00 +38°C° 0 mm 2 mps 734 mmHg 46%
20:00 +38°C° 0 mm 2 mps 734 mmHg 49%
21:00 +37°C° 0 mm 3 mps 735 mmHg 53%
22:00 +36°C° 0 mm 3 mps 735 mmHg 56%
23:00 +35°C° 0 mm 4 mps 735 mmHg 60%

Tomorrow, 9 August, Sunday

Time Temperature Precipitation Wind Pressure Humidity
00:00 +35°C° 0 mm 4 mps 735 mmHg 61%
01:00 +35°C° 0 mm 3 mps 734 mmHg 63%
02:00 +34°C° 0 mm 3 mps 734 mmHg 65%
03:00 +34°C° 0.1 mm 3 mps 734 mmHg 67%
04:00 +33°C° 0.1 mm 3 mps 734 mmHg 68%
05:00 +33°C° 0.1 mm 3 mps 734 mmHg 70%
06:00 +34°C° 0 mm 3 mps 735 mmHg 69%
07:00 +34°C° 0 mm 3 mps 735 mmHg 67%
08:00 +35°C° 0 mm 4 mps 736 mmHg 66%
09:00 +36°C° 0.1 mm 3 mps 735 mmHg 59%
10:00 +38°C° 0.1 mm 2 mps 735 mmHg 53%
11:00 +40°C° 0.1 mm 1 mps 735 mmHg 46%
12:00 +40°C° 0 mm 1 mps 734 mmHg 45%
13:00 +40°C° 0 mm 1 mps 734 mmHg 44%
14:00 +40°C° 0 mm 1 mps 733 mmHg 43%
15:00 +39°C° 0 mm 2 mps 733 mmHg 45%
16:00 +39°C° 0 mm 2 mps 733 mmHg 47%
17:00 +38°C° 0 mm 3 mps 732 mmHg 50%
18:00 +38°C° 0 mm 2 mps 733 mmHg 52%
19:00 +37°C° 0 mm 2 mps 733 mmHg 55%
20:00 +36°C° 0 mm 2 mps 734 mmHg 58%
21:00 +36°C° 0 mm 2 mps 734 mmHg 61%
22:00 +35°C° 0 mm 2 mps 734 mmHg 63%
23:00 +35°C° 0 mm 2 mps 734 mmHg 66%

Day after tomorrow, 10 August, Monday

Time Temperature Precipitation Wind Pressure Humidity
00:00 +33°C° 0 mm 1 mps 734 mmHg 67%
01:00 +33°C° 0 mm 1 mps 734 mmHg 68%
02:00 +33°C° 0 mm 1 mps 734 mmHg 69%
03:00 +33°C° 1.2 mm 1 mps 734 mmHg 71%
04:00 +32°C° 1.2 mm 1 mps 734 mmHg 72%
05:00 +32°C° 1.2 mm 1 mps 734 mmHg 74%
06:00 +34°C° 0.1 mm 2 mps 734 mmHg 70%
07:00 +35°C° 0.1 mm 2 mps 735 mmHg 65%
08:00 +36°C° 0.1 mm 2 mps 735 mmHg 61%
09:00 +37°C° 0.1 mm 2 mps 735 mmHg 56%
10:00 +38°C° 0.1 mm 2 mps 735 mmHg 51%
11:00 +39°C° 0.1 mm 2 mps 735 mmHg 45%
12:00 +40°C° 0 mm 2 mps 734 mmHg 45%
13:00 +40°C° 0 mm 3 mps 734 mmHg 45%
14:00 +40°C° 0 mm 3 mps 734 mmHg 44%
15:00 +40°C° 0 mm 3 mps 733 mmHg 46%
16:00 +40°C° 0 mm 4 mps 733 mmHg 49%
17:00 +40°C° 0 mm 5 mps 733 mmHg 51%
18:00 +38°C° 0.4 mm 4 mps 733 mmHg 55%
19:00 +37°C° 0.4 mm 4 mps 734 mmHg 58%
20:00 +36°C° 0.4 mm 4 mps 734 mmHg 62%
21:00 +35°C° 3 mm 3 mps 734 mmHg 65%
22:00 +35°C° 3 mm 3 mps 734 mmHg 68%
23:00 +34°C° 3 mm 3 mps 735 mmHg 71%

11 August, Tuesday

Time Temperature Precipitation Wind Pressure Humidity
00:00 +34°C° 0.4 mm 2 mps 734 mmHg 72%
01:00 +34°C° 0.4 mm 2 mps 734 mmHg 74%
02:00 +34°C° 0.4 mm 2 mps 734 mmHg 75%
03:00 +32°C° 1.8 mm 2 mps 734 mmHg 76%
04:00 +32°C° 1.8 mm 2 mps 734 mmHg 77%
05:00 +32°C° 1.8 mm 2 mps 734 mmHg 78%
06:00 +32°C° 2.7 mm 2 mps 734 mmHg 77%
07:00 +32°C° 2.7 mm 1 mps 735 mmHg 76%
08:00 +33°C° 2.7 mm 1 mps 735 mmHg 74%
09:00 +34°C° 1.4 mm 1 mps 735 mmHg 70%
10:00 +36°C° 1.4 mm 2 mps 735 mmHg 65%
11:00 +36°C° 1.4 mm 2 mps 735 mmHg 61%
12:00 +37°C° 0.2 mm 3 mps 734 mmHg 58%
13:00 +38°C° 0.2 mm 4 mps 734 mmHg 56%
14:00 +40°C° 0.2 mm 4 mps 733 mmHg 54%
15:00 +37°C° 2.4 mm 5 mps 733 mmHg 59%
16:00 +36°C° 2.4 mm 5 mps 733 mmHg 64%
17:00 +35°C° 2.4 mm 6 mps 733 mmHg 70%
18:00 +34°C° 3.6 mm 6 mps 734 mmHg 75%
19:00 +32°C° 3.6 mm 6 mps 734 mmHg 80%
20:00 +30°C° 3.6 mm 7 mps 735 mmHg 85%
21:00 +30°C° 4.8 mm 6 mps 735 mmHg 87%
22:00 +29°C° 4.8 mm 5 mps 735 mmHg 89%
23:00 +29°C° 4.8 mm 5 mps 735 mmHg 91%

12 August, Wednesday

Time Temperature Precipitation Wind Pressure Humidity
00:00 +28°C° 9.1 mm 5 mps 735 mmHg 92%
01:00 +28°C° 9.1 mm 5 mps 735 mmHg 93%
02:00 +28°C° 9.1 mm 6 mps 734 mmHg 94%
03:00 +28°C° 1.6 mm 6 mps 735 mmHg 93%
04:00 +28°C° 1.6 mm 6 mps 735 mmHg 92%
05:00 +28°C° 1.6 mm 6 mps 735 mmHg 90%
06:00 +28°C° 2 mm 6 mps 735 mmHg 90%
07:00 +28°C° 2 mm 6 mps 736 mmHg 90%
08:00 +28°C° 2 mm 5 mps 736 mmHg 89%
09:00 +28°C° 0.5 mm 5 mps 737 mmHg 88%
10:00 +29°C° 0.5 mm 5 mps 737 mmHg 87%
11:00 +29°C° 0.5 mm 5 mps 737 mmHg 86%
12:00 +29°C° 0.2 mm 5 mps 737 mmHg 83%
13:00 +30°C° 0.2 mm 5 mps 736 mmHg 81%
14:00 +30°C° 0.2 mm 5 mps 736 mmHg 78%
15:00 +30°C° 0 mm 5 mps 736 mmHg 78%
16:00 +30°C° 0 mm 4 mps 735 mmHg 79%
17:00 +30°C° 0 mm 4 mps 735 mmHg 79%
18:00 +30°C° 0.3 mm 3 mps 736 mmHg 81%
19:00 +30°C° 0.3 mm 3 mps 736 mmHg 84%
20:00 +29°C° 0.3 mm 3 mps 736 mmHg 86%
21:00 +29°C° 0.1 mm 3 mps 736 mmHg 86%
22:00 +29°C° 0.1 mm 3 mps 737 mmHg 86%
23:00 +29°C° 0.1 mm 3 mps 737 mmHg 86%

13 August, Thursday

Time Temperature Precipitation Wind Pressure Humidity
00:00 +29°C° 0.1 mm 3 mps 736 mmHg 86%
01:00 +29°C° 0.1 mm 3 mps 736 mmHg 86%
02:00 +29°C° 0.1 mm 2 mps 735 mmHg 86%
03:00 +28°C° 0.2 mm 2 mps 735 mmHg 86%
04:00 +28°C° 0.2 mm 2 mps 735 mmHg 87%
05:00 +28°C° 0.2 mm 2 mps 735 mmHg 88%
06:00 +28°C° 0.3 mm 1 mps 735 mmHg 88%
07:00 +28°C° 0.3 mm 1 mps 736 mmHg 88%
08:00 +29°C° 0.3 mm 1 mps 736 mmHg 87%
09:00 +29°C° 0.4 mm 1 mps 736 mmHg 86%
10:00 +29°C° 0.4 mm 1 mps 736 mmHg 84%
11:00 +30°C° 0.4 mm 1 mps 736 mmHg 83%
12:00 +30°C° 0.1 mm 1 mps 735 mmHg 81%
13:00 +31°C° 0.1 mm 1 mps 735 mmHg 79%
14:00 +31°C° 0.1 mm 1 mps 734 mmHg 77%
15:00 +31°C° 0 mm 1 mps 733 mmHg 76%
16:00 +32°C° 0 mm 1 mps 733 mmHg 74%
17:00 +32°C° 0 mm 1 mps 733 mmHg 73%
18:00 +32°C° 0 mm 1 mps 733 mmHg 75%
19:00 +31°C° 0 mm 1 mps 734 mmHg 77%
20:00 +31°C° 0 mm 1 mps 734 mmHg 80%
21:00 +31°C° 0.2 mm 1 mps 734 mmHg 80%
22:00 +30°C° 0.2 mm 1 mps 735 mmHg 81%
23:00 +30°C° 0.2 mm 1 mps 735 mmHg 82%
Show more